Showing default

AIGLONSAT-1, 68437

Orbit data source: Space-Track

AIGLONSAT-1, 68437 is an American payload satellite in SSO that was launched on Mon, 30 Mar 2026 UTC via an FALCON 9 launch vehicle from the Air Force Western Test Range (AFWTR). Payload-class satellites include a variety of spacecraft equipped with specific instruments for various scientific and technological missions. These include communications satellites like Starlink; space stations such as the ISS; scientific satellites like the Hubble; Earth observation satellites from companies like Planet Labs, Umbra, and HawkEye 360; GPS; miniature CubeSats for education and research; and military/defense satellites.

Loading next visibility...
Identifier
68437, 2026-067X
Orbit
SSO
Country
Flag of USUS
Related business
Manufacturer
AIGLON
Mission
Operational spacecraft
Bus & Motor
CUBESAT 1U, Unknown motor
Mass
1.7 kg wet, 1.7 kg dry
Launch date (UTC)
2026-03-30 (3 months ago)
Launch vehicle
FALCON 9
Launch site
Air Force Western Test Range (AFWTR)
Object type
Payload
Rocket body
Debris
Shape & HBR
Unknown shape, 0.1 m
Radar Cross Section
Medium (>0.1 m² and <1 m²)

Expand to show TLE details & history
Last TLE update: 2 days ago

TLE from 2 days ago
0 AIGLONSAT-1
1 68437U 26067X   26171.33893550  .00014291  00000-0  67154-3 0  9995
2 68437  97.4507 129.7874 0004240  65.3191 294.8485 15.19701422 12426
Epoch: 2026-06-20T08:08Z
TLE epoch observation values (Epoch: 2026-06-20T08:08:04.027Z)
Latitude
-0°
Longitude
99.21564°
Altitude
508.605 km
Speed
7.61 km/s
True Right ascension
08h 39m 08s
True Declination
0° 00' 00"
Sunlit
Object was in daylight at epoch
Visualization orbit readout
Latitude
Unknown
Longitude
Unknown
Altitude
Unknown
Speed
Unknown
Apparent Right ascension
Unknown
Apparent Declination
Unknown
Sunlit
N/A
Visualization observer readout
Local Sidereal Time
17:57:56
Azimuth
Unknown
Elevation
Unknown
Doppler factor
Unknown
Orbital elements
Apogee altitude
506.628 km
Perigee altitude
500.792 km
Semi-major axis
6,881.847 km
Eccentricity
0.00042
Inclination
97.4507°
RAAN
129.7874°
Arg. of periapsis
65.3191°
True anomaly
294.8044°
Mean anomaly
294.8485°
Eccentric anomaly
294.82645°
Mean motion
3.80177 °/min
Orbital period
94.69 mins
BSTAR
0.00067154
Loading maneuver chart data...
Computing Atmospheric mass density...
Loading historical data...
Loading historical data...
Loading historical data...
Loading historical data...
Loading historical data...
Loading historical data...
Loading historical data...

Documentation

Showing up to 5 results
|